Погода в Кирове

Россия / Республика Саха (Якутия)     64°32′42″N   122°14′31″E
темп.,
°C
ветер,
м/с
пор.,
м/с
влажн.,
%
обл.,
%
осадки,
мм/ч
давл.,
гПа
погр.,
м
27 февраля, сб
сб2700:00−34в3697100 0.0 1031138
03:00−32в369698 0.0 1030194
06:00−32в379794 0.0 1029180
09:00−35в359858 0.0 1029127
12:00−30в359695 0.0 1028241
15:00−28всв469597 0.0 1026270
18:00−29всв3795100 0.0 1026280
21:00−30всв2695100 0.0 1024218
28 февраля, вс
вс2800:00−29ссв2499100 0.3 1023214
03:00−30с2598100 0.6 1022204
06:00−30ссз1399100 0.2 1023105
09:00−29зсз2598100 0.4 1023237
12:00−27з3696100 0.1 1024342
15:00−27з3695100 0.2 1024460
18:00−27з3795100 0.1 1026472
21:00−27зсз3896100 0.1 1027542
1 марта, пн
пн100:00−28з3796100 0.1 1027312
03:00−31з369899 0.1 1027179
06:00−32з369698 0.0 1028181
09:00−32з379399 0.0 1028275
12:00−30з3593100 0.0 1028314
15:00−30з3593100 0.0 1027331
18:00−31з2595100 0.0 1028183
21:00−34з239697 0.0 102824
2 марта, вт
вт200:00−37зсз229759 0.0 102819
03:00−35зсз129674 0.0 102722
06:00−36зсз229698 0.0 102719
09:00−37зсз129686 0.0 102720
12:00−32сз129293 0.0 1027240
15:00−30сз118896 0.0 1027360
18:00−32с1196100 0.0 102719
21:00−34ссв1298100 0.0 102819
3 марта, ср
ср300:00−34с1298100 0.1 102720
03:00−34с1298100 0.1 102721
06:00−34с1298100 0.1 102744
09:00−33с2397100 0.1 1027166
12:00−31ссз2394100 0.1 1026360
15:00−30ссз2495100 0.3 1025463
18:00−31ссз2597100 0.1 1024453
21:00−31сз3797100 0.3 1023466